TSC690 CYUL-LGAV

Flight info

Callsign TSC690
Flight time N/A
Altitude 33000
Route ANTEG DCT OBRON DCT MOBUB DCT EBMOS DCT IMORI DCT KITOP DCT CEFOU DCT NEEKO/M077F350 NATZ GISTI/N0442F350 DCT LUPOR/N0439F370 DCT LUNIG DCT ENJEX DCT ADHAV DCT AGCAT DCT AXNEF DCT ZIPWE DCT OZZIL DCT SAWPE Q63 CPT UL9 BIG L607 KONAN UL607 SPI DCT ULNOK DCT VIBOM DCT NOMBO DCT RIDAR DCT RADIZ DCT LUPIX DCT PINDO DCT KOGIS DCT SKP UM749 ROPOX
Aircraft A21N/M-SDE2E3FGHIJ1RWXY/LB1

Departure

Time 2026-04-30 21:00
Airport Montreal / Pierre Elliott Trudeau International Airport (CYUL)

Arrival

Time N/A
Airport Athens Eleftherios Venizelos International Airport (LGAV)
Time Latitude Longitude Altitude Speed Heading
2026-04-30 19:50 45.45854 -73.75824 108 ft 0 kts 62°
2026-04-30 20:42 45.45841 -73.75858 105 ft 4 kts 60°
2026-04-30 20:43 45.45828 -73.75889 105 ft 4 kts 47°
2026-04-30 20:43 45.45808 -73.75906 105 ft 4 kts 352°
2026-04-30 20:43 45.45786 -73.75891 107 ft 4 kts 311°
2026-04-30 20:44 45.45782 -73.75883 107 ft 0 kts 308°
2026-04-30 20:47 45.45782 -73.75884 107 ft 2 kts 308°
2026-04-30 20:48 45.45840 -73.75935 108 ft 4 kts 343°
2026-04-30 20:48 45.45867 -73.75944 108 ft 4 kts 347°
2026-04-30 20:48 45.45897 -73.75950 108 ft 5 kts 357°
2026-04-30 20:48 45.45942 -73.75953 108 ft 6 kts 358°
2026-04-30 20:49 45.45985 -73.75956 108 ft 6 kts 357°
2026-04-30 20:49 45.46027 -73.75959 107 ft 6 kts 357°
2026-04-30 20:49 45.46070 -73.75962 107 ft 7 kts 359°
2026-04-30 20:50 45.46125 -73.75858 105 ft 7 kts 82°
2026-04-30 20:50 45.46128 -73.75786 105 ft 7 kts 84°
2026-04-30 20:50 45.46149 -73.75731 104 ft 4 kts 23°
2026-04-30 20:50 45.46173 -73.75729 105 ft 3 kts
2026-04-30 20:51 45.46195 -73.75728 106 ft 7 kts 359°
2026-04-30 20:51 45.46377 -73.75703 107 ft 15 kts 12°
2026-04-30 20:51 45.46467 -73.75641 107 ft 14 kts 42°
2026-04-30 20:52 45.46542 -73.75544 108 ft 15 kts 42°
2026-04-30 20:52 45.46624 -73.75437 109 ft 17 kts 42°
2026-04-30 20:52 45.46790 -73.75221 110 ft 16 kts 42°
2026-04-30 20:53 45.46879 -73.75106 111 ft 18 kts 42°
2026-04-30 20:53 45.46972 -73.74986 113 ft 18 kts 42°
2026-04-30 20:53 45.47068 -73.74856 113 ft 20 kts 43°
2026-04-30 20:54 45.47275 -73.74582 114 ft 21 kts 42°
2026-04-30 20:54 45.47388 -73.74437 115 ft 23 kts 43°
2026-04-30 20:54 45.47510 -73.74277 114 ft 25 kts 42°
2026-04-30 20:55 45.47758 -73.73951 115 ft 24 kts 42°
2026-04-30 20:55 45.47878 -73.73797 114 ft 23 kts 41°
2026-04-30 20:55 45.47989 -73.73644 112 ft 22 kts 44°
2026-04-30 20:56 45.48204 -73.73377 114 ft 15 kts 12°
2026-04-30 20:56 45.48251 -73.73404 114 ft 0 kts 309°
2026-04-30 20:58 45.48275 -73.73514 115 ft 10 kts 270°
2026-04-30 20:58 45.48281 -73.73630 113 ft 13 kts 265°
2026-04-30 20:58 45.48232 -73.73724 115 ft 10 kts 222°
2026-04-30 20:58 45.48117 -73.73872 113 ft 46 kts 223°
2026-04-30 20:59 45.47281 -73.74974 114 ft 151 kts 223°
2026-04-30 20:59 45.46391 -73.76124 222 ft 187 kts 227°
2026-04-30 21:00 45.44116 -73.79231 1764 ft 191 kts 229°
2026-04-30 21:00 45.42536 -73.81470 2795 ft 201 kts 230°
2026-04-30 21:01 45.40614 -73.84733 3287 ft 233 kts 255°
2026-04-30 21:01 45.40557 -73.87053 3687 ft 242 kts 285°
2026-04-30 21:01 45.42867 -73.90371 5036 ft 255 kts 342°
2026-04-30 21:02 45.44677 -73.90465 5599 ft 270 kts 10°
2026-04-30 21:02 45.46399 -73.89347 6342 ft 276 kts 31°
2026-04-30 21:02 45.47946 -73.87693 7033 ft 281 kts 36°
2026-04-30 21:02 45.49486 -73.85929 7682 ft 286 kts 37°
2026-04-30 21:03 45.51023 -73.84092 8331 ft 291 kts 38°
2026-04-30 21:03 45.52572 -73.82191 8996 ft 296 kts 39°
2026-04-30 21:03 45.54135 -73.80253 9703 ft 300 kts 40°
2026-04-30 21:03 45.55727 -73.78281 10267 ft 309 kts 40°
2026-04-30 21:04 45.57397 -73.76218 10570 ft 327 kts 40°
2026-04-30 21:04 45.59166 -73.74040 10867 ft 345 kts 40°
2026-04-30 21:04 45.62943 -73.69405 11807 ft 366 kts 41°
2026-04-30 21:05 45.64890 -73.67015 12448 ft 372 kts 41°
2026-04-30 21:05 45.66865 -73.64590 13086 ft 377 kts 41°
2026-04-30 21:05 45.68865 -73.62131 13710 ft 382 kts 41°
2026-04-30 21:05 45.70891 -73.59638 14310 ft 386 kts 42°
2026-04-30 21:06 45.72935 -73.57119 14910 ft 389 kts 42°
2026-04-30 21:06 45.74995 -73.54579 15517 ft 393 kts 42°
2026-04-30 21:06 45.77074 -73.52011 16096 ft 396 kts 43°
2026-04-30 21:06 45.79143 -73.49455 16623 ft 400 kts 43°
2026-04-30 21:07 45.81264 -73.46831 17179 ft 404 kts 43°
2026-04-30 21:07 45.83397 -73.44187 17726 ft 408 kts 43°
2026-04-30 21:07 45.85548 -73.41509 18233 ft 411 kts 45°
2026-04-30 21:07 45.87593 -73.38639 18691 ft 413 kts 48°
2026-04-30 21:08 45.89606 -73.35685 19146 ft 415 kts 49°
2026-04-30 21:08 45.91601 -73.32672 19605 ft 418 kts 50°
2026-04-30 21:08 45.93593 -73.29618 20075 ft 420 kts 50°
2026-04-30 21:08 45.95593 -73.26533 20537 ft 423 kts 51°
2026-04-30 21:09 45.97606 -73.23420 20986 ft 426 kts 51°
2026-04-30 21:09 45.99632 -73.20290 21430 ft 429 kts 51°
2026-04-30 21:09 46.01673 -73.17139 21871 ft 432 kts 51°
2026-04-30 21:09 46.03728 -73.13968 22300 ft 434 kts 51°
2026-04-30 21:10 46.05795 -73.10778 22672 ft 437 kts 51°
2026-04-30 21:10 46.07877 -73.07564 23027 ft 441 kts 52°
2026-04-30 21:10 46.09977 -73.04317 23407 ft 444 kts 52°
2026-04-30 21:10 46.12086 -73.01052 23722 ft 446 kts 52°
2026-04-30 21:11 46.14203 -72.97772 24048 ft 448 kts 52°
2026-04-30 21:11 46.16303 -72.94440 24357 ft 448 kts 56°
2026-04-30 21:11 46.18139 -72.90828 24669 ft 446 kts 62°
2026-04-30 21:11 46.19837 -72.87080 24977 ft 446 kts 63°
2026-04-30 21:12 46.21475 -72.83270 25279 ft 448 kts 64°
2026-04-30 21:12 46.23085 -72.79412 25574 ft 449 kts 65°
2026-04-30 21:12 46.24684 -72.75525 25873 ft 451 kts 65°
2026-04-30 21:12 46.26284 -72.71619 26159 ft 453 kts 65°
2026-04-30 21:13 46.27891 -72.67699 26454 ft 454 kts 65°
2026-04-30 21:13 46.29508 -72.63767 26756 ft 455 kts 65°
2026-04-30 21:13 46.31133 -72.59820 27021 ft 457 kts 64°
2026-04-30 21:13 46.32762 -72.55864 27280 ft 459 kts 64°
2026-04-30 21:14 46.34400 -72.51885 27535 ft 461 kts 64°
2026-04-30 21:14 46.36044 -72.47890 27754 ft 463 kts 65°
2026-04-30 21:14 46.37692 -72.43879 28010 ft 464 kts 65°
2026-04-30 21:14 46.39341 -72.39860 28258 ft 465 kts 65°
2026-04-30 21:15 46.40995 -72.35820 28499 ft 466 kts 65°
2026-04-30 21:15 46.42648 -72.31779 28824 ft 465 kts 66°
2026-04-30 21:15 46.44294 -72.27756 29271 ft 462 kts 66°
2026-04-30 21:15 46.45929 -72.23751 29600 ft 461 kts 66°
2026-04-30 21:16 46.47538 -72.19796 29881 ft 461 kts 66°
2026-04-30 21:16 46.49166 -72.15788 30112 ft 461 kts 66°
2026-04-30 21:16 46.50791 -72.11781 30315 ft 461 kts 66°
2026-04-30 21:16 46.52417 -72.07767 30563 ft 461 kts 66°
2026-04-30 21:17 46.54042 -72.03749 30780 ft 461 kts 66°
2026-04-30 21:17 46.55666 -71.99729 30985 ft 461 kts 65°
2026-04-30 21:17 46.57285 -71.95716 31188 ft 461 kts 65°
2026-04-30 21:17 46.58906 -71.91692 31351 ft 461 kts 65°
2026-04-30 21:18 46.60523 -71.87672 31521 ft 461 kts 65°
2026-04-30 21:18 46.62140 -71.83645 31695 ft 461 kts 65°
2026-04-30 21:18 46.63754 -71.79620 31876 ft 461 kts 65°
2026-04-30 21:18 46.65369 -71.75590 32041 ft 461 kts 65°
2026-04-30 21:19 46.66980 -71.71561 32220 ft 461 kts 65°
2026-04-30 21:19 46.68591 -71.67527 32389 ft 460 kts 65°
2026-04-30 21:19 46.70286 -71.63564 32549 ft 464 kts 58°
2026-04-30 21:19 46.72297 -71.59865 32697 ft 467 kts 54°
2026-04-30 21:20 46.76543 -71.52671 32794 ft 468 kts 53°
2026-04-30 21:20 46.80359 -71.45112 32796 ft 460 kts 63°
2026-04-30 21:21 46.83666 -71.37138 32796 ft 459 kts 64°
2026-04-30 21:22 46.88443 -71.25028 32781 ft 458 kts 66°
2026-04-30 21:23 46.94750 -71.08955 32811 ft 457 kts 66°
2026-04-30 21:23 46.99492 -70.96859 32811 ft 457 kts 66°
2026-04-30 21:24 47.02646 -70.88785 32815 ft 457 kts 66°
2026-04-30 21:24 47.05794 -70.80702 32812 ft 456 kts 66°
2026-04-30 21:25 47.10493 -70.68589 32810 ft 455 kts 66°
2026-04-30 21:26 47.15177 -70.56458 32815 ft 455 kts 66°
2026-04-30 21:27 47.19848 -70.44306 32816 ft 455 kts 66°
2026-04-30 21:27 47.22953 -70.36200 32817 ft 455 kts 66°
2026-04-30 21:28 47.27600 -70.24022 32820 ft 455 kts 66°
2026-04-30 21:29 47.32234 -70.11817 32820 ft 455 kts 67°
2026-04-30 21:30 47.39878 -69.91560 32827 ft 451 kts 67°
2026-04-30 21:31 47.47458 -69.71325 32834 ft 450 kts 67°
2026-04-30 21:32 47.51986 -69.59184 32832 ft 449 kts 68°
2026-04-30 21:32 47.54991 -69.51086 32817 ft 449 kts 68°
2026-04-30 21:33 47.59485 -69.38927 32843 ft 449 kts 68°
2026-04-30 21:34 47.62452 -69.30867 32847 ft 448 kts 68°
2026-04-30 21:34 47.66942 -69.18626 32854 ft 448 kts 68°
2026-04-30 21:35 47.69895 -69.10545 32862 ft 448 kts 68°
2026-04-30 21:35 47.72862 -69.02401 32860 ft 449 kts 68°
2026-04-30 21:36 47.76205 -68.94501 32863 ft 453 kts 63°
2026-04-30 21:37 47.83194 -68.78901 32860 ft 453 kts 62°
2026-04-30 21:37 47.86697 -68.71089 32861 ft 453 kts 62°
2026-04-30 21:38 47.90185 -68.63267 32863 ft 453 kts 62°
2026-04-30 21:38 47.93662 -68.55437 32845 ft 453 kts 62°
2026-04-30 21:39 47.97134 -68.47595 32866 ft 453 kts 62°
2026-04-30 21:39 48.00600 -68.39747 32866 ft 453 kts 62°
2026-04-30 21:40 48.04057 -68.31896 32872 ft 453 kts 62°
2026-04-30 21:40 48.07514 -68.24022 32872 ft 453 kts 62°
2026-04-30 21:41 48.10964 -68.16140 32868 ft 454 kts 62°
2026-04-30 21:41 48.14430 -68.08194 32887 ft 457 kts 62°
2026-04-30 21:42 48.17907 -68.00207 32886 ft 458 kts 62°
2026-04-30 21:42 48.21377 -67.92215 32893 ft 457 kts 62°
2026-04-30 21:43 48.24256 -67.85563 32893 ft 457 kts 62°
2026-04-30 21:43 48.28300 -67.76190 32898 ft 458 kts 62°
2026-04-30 21:44 48.31742 -67.68188 32907 ft 459 kts 62°
2026-04-30 21:44 48.35219 -67.60080 32919 ft 459 kts 62°
2026-04-30 21:45 48.38649 -67.52058 32925 ft 459 kts 62°
2026-04-30 21:45 48.42091 -67.43983 32920 ft 458 kts 62°
2026-04-30 21:46 48.45527 -67.35898 32929 ft 458 kts 62°
2026-04-30 21:46 48.48952 -67.27815 32936 ft 458 kts 62°
2026-04-30 21:47 48.52377 -67.19709 32936 ft 458 kts 62°
2026-04-30 21:47 48.55792 -67.11599 32936 ft 458 kts 62°
2026-04-30 21:48 48.59202 -67.03477 32951 ft 458 kts 62°
2026-04-30 21:48 48.62035 -66.96712 32952 ft 458 kts 62°
2026-04-30 21:49 48.65439 -66.88563 32951 ft 458 kts 62°
2026-04-30 21:49 48.68835 -66.80405 32953 ft 458 kts 62°
2026-04-30 21:50 48.72228 -66.72230 32949 ft 459 kts 61°
2026-04-30 21:50 48.75617 -66.64035 32966 ft 460 kts 61°
2026-04-30 21:51 48.79010 -66.55813 32968 ft 460 kts 61°
2026-04-30 21:51 48.82392 -66.47590 32965 ft 460 kts 61°
2026-04-30 21:52 48.85773 -66.39344 32972 ft 460 kts 61°
2026-04-30 21:52 48.89148 -66.31084 32977 ft 461 kts 60°
2026-04-30 21:53 48.92533 -66.22779 32965 ft 462 kts 62°
2026-04-30 21:53 48.95911 -66.14463 32984 ft 462 kts 61°
2026-04-30 21:54 48.99285 -66.06130 32967 ft 462 kts 61°
2026-04-30 21:54 49.02633 -65.97834 32974 ft 462 kts 60°
2026-04-30 21:55 49.06021 -65.89414 32968 ft 464 kts 60°
2026-04-30 21:55 49.09389 -65.81012 32980 ft 464 kts 60°
2026-04-30 21:56 49.12727 -65.72654 32976 ft 464 kts 60°
2026-04-30 21:56 49.16080 -65.64235 32981 ft 465 kts 60°
2026-04-30 21:57 49.19431 -65.55797 32984 ft 463 kts 60°
2026-04-30 21:57 49.22763 -65.47386 32990 ft 462 kts 60°
2026-04-30 21:58 49.26086 -65.38973 32996 ft 462 kts 60°
2026-04-30 21:58 49.29402 -65.30556 32995 ft 462 kts 60°
2026-04-30 21:59 49.32712 -65.22125 33007 ft 462 kts 59°
2026-04-30 22:00 49.37680 -65.09410 33031 ft 465 kts 59°
2026-04-30 22:00 49.42665 -64.96589 33052 ft 466 kts 59°
2026-04-30 22:01 49.45982 -64.88022 33074 ft 467 kts 59°
2026-04-30 22:01 49.49293 -64.79443 33082 ft 465 kts 59°
2026-04-30 22:02 49.52570 -64.70925 33083 ft 461 kts 59°
2026-04-30 22:02 49.55829 -64.62428 33104 ft 461 kts 59°
2026-04-30 22:03 49.59077 -64.53928 33103 ft 460 kts 59°
2026-04-30 22:03 49.62326 -64.45401 33114 ft 462 kts 59°
2026-04-30 22:04 49.65557 -64.36892 33121 ft 458 kts 59°
2026-04-30 22:05 49.70362 -64.24188 33134 ft 456 kts 59°
2026-04-30 22:05 49.73551 -64.15721 33127 ft 455 kts 60°
2026-04-30 22:06 49.76732 -64.07246 33130 ft 456 kts 60°
2026-04-30 22:06 49.81470 -63.94579 33129 ft 453 kts 60°
2026-04-30 22:07 49.84618 -63.86125 33133 ft 452 kts 60°
2026-04-30 22:07 49.87752 -63.77680 33134 ft 452 kts 60°
2026-04-30 22:08 49.90882 -63.69220 33142 ft 452 kts 60°
2026-04-30 22:08 49.94006 -63.60749 33143 ft 452 kts 62°
2026-04-30 22:09 49.97127 -63.52259 33153 ft 453 kts 62°
2026-04-30 22:09 50.00242 -63.43754 33152 ft 453 kts 63°
2026-04-30 22:10 50.03354 -63.35232 33162 ft 453 kts 62°
2026-04-30 22:10 50.06461 -63.26700 33167 ft 453 kts 63°
2026-04-30 22:11 50.11107 -63.13885 33177 ft 453 kts 63°
2026-04-30 22:12 50.14191 -63.05337 33180 ft 453 kts 63°
2026-04-30 22:12 50.17271 -62.96773 33194 ft 453 kts 63°
2026-04-30 22:13 50.20344 -62.88201 33192 ft 453 kts 63°
2026-04-30 22:13 50.23413 -62.79616 33202 ft 453 kts 63°
2026-04-30 22:14 50.26476 -62.71018 33202 ft 453 kts 63°
2026-04-30 22:14 50.29534 -62.62402 33214 ft 453 kts 63°
2026-04-30 22:15 50.32585 -62.53779 33214 ft 453 kts 63°
2026-04-30 22:15 50.35629 -62.45145 33213 ft 453 kts 64°
2026-04-30 22:16 50.38667 -62.36498 33211 ft 453 kts 64°
2026-04-30 22:17 50.44707 -62.19226 33225 ft 453 kts 64°
2026-04-30 22:17 50.49235 -62.06197 33225 ft 453 kts 64°
2026-04-30 22:18 50.53751 -61.93132 33223 ft 454 kts 65°
2026-04-30 22:19 50.58267 -61.80002 33234 ft 455 kts 65°
2026-04-30 22:20 50.62773 -61.66833 33236 ft 455 kts 65°
2026-04-30 22:20 50.67264 -61.53640 33235 ft 455 kts 65°
2026-04-30 22:21 50.70252 -61.44825 33237 ft 456 kts 65°
2026-04-30 22:21 50.73235 -61.35990 33235 ft 456 kts 65°
2026-04-30 22:22 50.76213 -61.27142 33238 ft 456 kts 65°
2026-04-30 22:22 50.79182 -61.18281 33237 ft 456 kts 65°
2026-04-30 22:23 50.82147 -61.09399 33238 ft 457 kts 66°
2026-04-30 22:23 50.85107 -61.00502 33235 ft 458 kts 66°
2026-04-30 22:24 50.88072 -60.91566 33235 ft 458 kts 66°
2026-04-30 22:24 50.91025 -60.82635 33227 ft 458 kts 66°
2026-04-30 22:25 50.93978 -60.73677 33228 ft 458 kts 66°
2026-04-30 22:25 50.96921 -60.64724 33218 ft 458 kts 66°
2026-04-30 22:26 51.01332 -60.51234 33231 ft 459 kts 66°
2026-04-30 22:27 51.04263 -60.42224 33233 ft 459 kts 66°
2026-04-30 22:27 51.08646 -60.28688 33216 ft 459 kts 66°
2026-04-30 22:28 51.13030 -60.15074 33231 ft 462 kts 66°
2026-04-30 22:29 51.18870 -59.96828 33230 ft 462 kts 66°
2026-04-30 22:31 51.29014 -59.64802 33227 ft 464 kts 66°
2026-04-30 22:32 51.36237 -59.41744 33230 ft 464 kts 66°
2026-04-30 22:33 51.43423 -59.18582 33238 ft 465 kts 66°
2026-04-30 22:35 51.50577 -58.95304 33238 ft 465 kts 67°
2026-04-30 22:36 51.57207 -58.73528 33243 ft 467 kts 67°
2026-04-30 22:37 51.62884 -58.54727 33241 ft 467 kts 67°
2026-04-30 22:38 51.68530 -58.35884 33248 ft 467 kts 67°
2026-04-30 22:39 51.72743 -58.21722 33240 ft 467 kts 67°
2026-04-30 22:40 51.81115 -57.93335 33223 ft 467 kts 68°
2026-04-30 22:41 51.88036 -57.69607 33246 ft 466 kts 68°
2026-04-30 22:43 51.96253 -57.41127 33263 ft 466 kts 68°
2026-04-30 22:44 52.01703 -57.22048 33254 ft 466 kts 68°
2026-04-30 22:45 52.09820 -56.93337 33245 ft 466 kts 68°
2026-04-30 22:47 52.17875 -56.64497 33253 ft 466 kts 68°
2026-04-30 22:48 52.23194 -56.45252 33261 ft 466 kts 68°
2026-04-30 22:49 52.27162 -56.30793 33829 ft 465 kts 68°
2026-04-30 22:49 52.31100 -56.16347 34317 ft 464 kts 68°
2026-04-30 22:50 52.36304 -55.97109 34758 ft 465 kts 68°
2026-04-30 22:51 52.38913 -55.87410 34929 ft 466 kts 68°
2026-04-30 22:51 52.41643 -55.77756 35092 ft 468 kts 65°
2026-04-30 22:52 52.43110 -55.72982 35180 ft 469 kts 64°
2026-04-30 22:53 52.49066 -55.53910 35252 ft 469 kts 64°
2026-04-30 22:53 52.53457 -55.39562 35271 ft 469 kts 65°
2026-04-30 22:55 52.60711 -55.15585 35270 ft 469 kts 65°
2026-04-30 22:56 52.66491 -54.96319 35283 ft 470 kts 65°
2026-04-30 22:57 52.73677 -54.72148 35289 ft 470 kts 65°
2026-04-30 22:58 52.79388 -54.52763 35297 ft 468 kts 65°
2026-04-30 22:59 52.87865 -54.23690 35300 ft 468 kts 65°